Location: Be?chatów
(51.3665°N, 19.3745°E)
Time: 22:42:40
(UTC+00:00)

COSMOS 2406 - Pass Details

Date: 19 May 2025
Orbit: 845 x 859 km, 71.0° (Epoch: 16 June)

Event Time Altitude Azimuth Distance (km) Brightness Sun altitude
Exits shadow 21:59:08 21° 212° (SSW) 1,809 4.5 -18.1°
Maximum altitude 22:03:02 84° 299° (WNW) 862 3.2 -18.2°
Drops below altitude 10° 22:08:47 10° 29° (NNE) 2,493 6.4 -18.3°
Sets 22:11:15 0° 31° (NNE) 3,435 7.2 -18.4°
